• Processing (Info)

  • MPEC 2007-M39 : 2007 MM13

    The following Minor Planet Electronic Circular may be linked-to from your own Web pages, but must not otherwise be redistributed electronically.

    A form allowing access to any MPEC is at the bottom of this page.


    Read MPEC 2007-M38 Read MPEC 2007-M40


    M.P.E.C. 2007-M39                                Issued 2007 June 24, 15:16 UT
    
         The Minor Planet Electronic Circulars contain information on unusual
             minor planets and routine data on comets.  They are published
       on behalf of Commission 20 of the International Astronomical Union by the
              Minor Planet Center, Smithsonian Astrophysical Observatory,
                              Cambridge, MA 02138, U.S.A.
    
                 Prepared using the Tamkin Foundation Computer Network
    
                                  MPC@CFA.HARVARD.EDU
              URL http://www.cfa.harvard.edu/iau/mpc.html  ISSN 1523-6714
    
                                       2007 MM13
    
    Observations:
         K07M13M* C2007 06 23.23956 14 26 54.74 +72 03 37.4          18.0 V EM039703
         K07M13M  C2007 06 23.24466 14 26 59.78 +72 03 14.1          17.9 V EM039703
         K07M13M  C2007 06 23.24973 14 27 04.89 +72 02 51.1          17.8 V EM039703
         K07M13M  C2007 06 23.25487 14 27 10.26 +72 02 27.1          17.9 V EM039703
         K07M13M  C2007 06 23.31069 14 28 06.74 +71 58 10.8          18.0 V EM039703
         K07M13M  C2007 06 23.31265 14 28 08.65 +71 58 01.3          17.9 V EM039703
         K07M13M  C2007 06 23.31461 14 28 10.74 +71 57 52.4          18.1 V EM039703
         K07M13M  C2007 06 23.31654 14 28 12.72 +71 57 43.4          18.1 V EM039703
         K07M13M  C2007 06 23.88654 14 37 29.00 +71 14 54.9          17.7 R EM039A24
         K07M13M  C2007 06 23.88951 14 37 31.61 +71 14 42.0          17.5 R EM039A24
         K07M13M  C2007 06 23.89073 14 37 32.73 +71 14 35.8          17.6 R EM039A24
         K07M13M  C2007 06 23.89195 14 37 33.87 +71 14 29.8          17.6 R EM039A24
         K07M13M  C2007 06 23.89317 14 37 35.07 +71 14 24.4          17.7 R EM039A24
         K07M13M  C2007 06 23.89440 14 37 36.13 +71 14 19.0          17.7 R EM039A24
         K07M13M  C2007 06 23.89562 14 37 37.20 +71 14 13.6          17.7 R EM039A24
         K07M13M  C2007 06 23.89685 14 37 38.21 +71 14 08.2          17.4 R EM039A24
         K07M13M  C2007 06 23.89808 14 37 39.35 +71 14 02.2          17.4 R EM039A24
         K07M13M  C2007 06 23.89931 14 37 40.48 +71 13 56.3          17.6 R EM039A24
         K07M13M  C2007 06 23.90053 14 37 41.56 +71 13 50.9          17.5 R EM039A24
         K07M13M  C2007 06 23.90175 14 37 42.71 +71 13 45.2          17.4 R EM039A24
         K07M13M  C2007 06 23.92810 14 38 06.10 +71 11 45.1          17.6 R EM039A24
         K07M13M  C2007 06 23.92862 14 38 06.63 +71 11 42.9          17.4 R EM039A24
         K07M13M  C2007 06 23.92916 14 38 07.02 +71 11 40.5          17.5 R EM039A24
         K07M13M  C2007 06 23.92968 14 38 07.57 +71 11 37.9          17.6 R EM039A24
         K07M13M  C2007 06 23.93021 14 38 08.06 +71 11 35.4          17.5 R EM039A24
         K07M13M  C2007 06 23.93074 14 38 08.42 +71 11 33.0          17.6 R EM039A24
         K07M13M  C2007 06 23.93127 14 38 08.87 +71 11 30.5          17.6 R EM039A24
         K07M13M  C2007 06 23.96657 14 38 40.17 +71 08 46.2          18.3 V EM039B03
         K07M13M  C2007 06 23.97249 14 38 45.42 +71 08 19.0          18.3 V EM039B03
         K07M13M  C2007 06 23.97840 14 38 50.71 +71 07 51.7          18.2 V EM039B03
         K07M13M  C2007 06 23.98432 14 38 55.93 +71 07 24.6          18.3 V EM039B03
         K07M13M  C2007 06 24.10657 14 40 46.63 +70 58 26.0          18.1 V EM039H98
         K07M13M  C2007 06 24.12173 14 40 59.52 +70 57 16.0          17.8 V EM039H98
         K07M13M  C2007 06 24.13777 14 41 13.21 +70 56 03.3          18.3 V EM039H98
         K07M13M  C2007 06 24.21710 14 42 22.76 +70 50 10.6          18.5 V EM039G88
         K07M13M  C2007 06 24.22492 14 42 29.36 +70 49 35.0          18.3 V EM039G88
         K07M13M  C2007 06 24.22675 14 42 30.74 +70 49 26.3          18.1 V EM039703
         K07M13M  C2007 06 24.22727 14 42 31.21 +70 49 23.7          18.0 V EM039703
         K07M13M  C2007 06 24.22781 14 42 31.53 +70 49 21.7          18.1 V EM039703
         K07M13M  C2007 06 24.22833 14 42 32.04 +70 49 19.8          17.9 V EM039703
         K07M13M  C2007 06 24.23260 14 42 35.72 +70 48 59.9          18.4 V EM039G88
         K07M13M 5C2007 06 24.24270814 42 44.472+70 48 14.45         17.8 R EM039673
         K07M13M 5C2007 06 24.24838014 42 49.171+70 47 48.67                EM039673
         K07M13M 5C2007 06 24.25370414 42 53.547+70 47 24.26                EM039673
         K07M13M 5C2007 06 24.25729214 42 56.605+70 47 07.89                EM039673
         K07M13M  C2007 06 24.30660 14 43 36.51 +70 43 15.2          17.6 R EM039649
         K07M13M  C2007 06 24.30837 14 43 38.05 +70 43 06.8          17.9 R EM039649
         K07M13M  C2007 06 24.31015 14 43 39.49 +70 42 58.9          17.8 R EM039649
         K07M13M  C2007 06 24.31193 14 43 41.06 +70 42 50.5          18.0 R EM039649
         K07M13M  C2007 06 24.31370 14 43 42.51 +70 42 42.3          17.7 R EM039649
    
    Observer details:
    649 Powell Observatory, Louisburg.  Observers R. Fredrick, R. Trentman.
        0.75-m Newtonian reflector + CCD.
    673 Table Mountain Observatory, Wrightwood.  Observer J. Young.  0.61-m f/16
        Cassegrain + CCD.
    703 Catalina Sky Survey.  Observers A. R. Gibbs, A. Boattini.  Measurers
        E. C. Beshore, A. Boattini, G. J. Garradd, A. R. Gibbs, A. D. Grauer,
        R. E. Hill, R. A. Kowalski, S. M. Larson, R. H. McNaught.  0.68-m Schmidt
        + CCD.
    A24 New Millennium Observatory, Mozzate.  Observer E. Cozzi.  0.36-m f/7.6
        Schmidt-Cassegrain + CCD.
    B03 Alter Satzberg, Vienna.  Observer M. Pietschnig.  0.35-m f/7
        Schmidt-Cassegrain + CCD.
    G88 LAMP Observatory, New River.  Observer S. Loucks.  0.28-m f/3.3
        Schmidt-Cassegrain + CCD.
    H98 Dark Rosanne Obs., Middlefield.  Observer R. Krajewski.  0.20-m f/4
        Schmidt-Newtonian + CCD.
    
    Orbital elements:
    2007 MM13                                                Earth MOID = 0.1571 AU
    Epoch 2007 Apr. 10.0 TT = JDT 2454200.5                 MPC
    M 347.32594              (2000.0)            P               Q
    n   0.60402808     Peri.  294.12367     -0.82664883     -0.13161759
    a   1.3860045      Node   242.74314     +0.19234554     -0.97978952
    e   0.5633513      Incl.   37.98441     -0.52882408     -0.15062970
    P   1.63           H   17.6           G   0.15           U   9
    Residuals in seconds of arc
    070623 703  0.4+  0.2-    070623 A24  0.1+  0.3-    070624 G88  0.1+  0.4+
    070623 703  0.3-  0.1-    070623 A24  0.1+  0.2-    070624 G88  0.5+  0.3+
    070623 703  0.4-  0.1+    070623 A24  0.4+  0.3-    070624 703  0.4+  0.5-
    070623 703  0.3+  0.3-    070623 A24  0.1-  0.1-    070624 703  0.6+  0.7-
    070623 703  0.0   0.4+    070623 A24  0.2+  0.1+    070624 703  0.0   0.2-
    070623 703  0.4-  0.0     070623 A24  0.2-  0.2+    070624 703  0.3+  0.2+
    070623 703  0.1+  0.2+    070623 A24  0.2+  0.1-    070624 G88  0.3+  0.1+
    070623 703  0.3+  0.1+    070623 A24  0.3+  0.1-    070624 673  0.0   0.0
    070623 A24  0.2-  0.1+    070623 A24  0.2-  0.1-    070624 673  0.0   0.0
    070623 A24  0.4-  0.7+    070623 A24  0.3-  0.2-    070624 673  0.2-  0.2-
    070623 A24  0.3-  0.1+    070623 B03  0.1+  0.1-    070624 673  0.2+  0.2-
    070623 A24  0.0   0.4-    070623 B03  0.0   0.1-    070624 649  0.3-  0.2+
    070623 A24  0.5+  0.2-    070623 B03  0.1+  0.2-    070624 649  0.0   0.1-
    070623 A24  0.3+  0.0     070623 B03  0.1-  0.1-    070624 649  0.3-  0.2+
    070623 A24  0.2+  0.1+    070624 H98  0.6-  1.1+    070624 649  0.2+  0.0
    070623 A24  0.2-  0.3+    070624 H98  0.9-  0.1-    070624 649  0.0   0.0
    070623 A24  0.0   0.0     070624 H98  0.7-  0.3+
    
    Ephemeris:
    2007 MM13                a,e,i = 1.39, 0.56, 38                  q = 0.6052
    Date    TT    R. A. (2000) Decl.     Delta      r     Elong.  Phase     V
    2007 06 19    12 28.51   +76 33.4    0.276    0.955    69.6    94.7    18.1
    2007 06 29    15 28.95   +65 13.1    0.382    1.054    85.0    73.8    18.2
    2007 07 09    16 08.40   +56 20.5    0.499    1.151    92.3    62.0    18.6
    2007 07 19    16 27.61   +49 57.5    0.618    1.243    96.0    54.4    19.0
    2007 07 29    16 41.97   +44 49.7    0.735    1.331    97.7    49.1    19.4
    2007 08 08    16 55.22   +40 23.8    0.852    1.414    98.2    45.2    19.7
    2007 08 18    17 08.67   +36 25.3    0.969    1.492    97.7    42.2    20.0
    2007 08 28    17 22.79   +32 48.8    1.086    1.566    96.6    39.9    20.3
    2007 09 07    17 37.70   +29 32.1    1.204    1.634    94.9    37.9    20.6
    2007 09 17    17 53.42   +26 34.5    1.323    1.698    92.6    36.3    20.8
    2007 09 27    18 09.92   +23 56.4    1.444    1.757    90.0    34.8    21.1
    2007 10 07    18 27.07   +21 37.9    1.566    1.812    86.9    33.4    21.3
    2007 10 17    18 44.83   +19 39.0    1.690    1.863    83.6    32.1    21.5
    2007 10 27    19 03.07   +18 00.0    1.813    1.909    79.9    30.8    21.6
    2007 11 06    19 21.71   +16 40.4    1.936    1.952    76.1    29.5    21.8
    2007 11 16    19 40.66   +15 39.8    2.058    1.990    72.1    28.2    21.9
    2007 11 26    19 59.83   +14 57.6    2.178    2.024    67.9    26.9    22.0
    
    Gareth V. Williams           (C) Copyright 2007 MPC           M.P.E.C. 2007-M39
    

    Read MPEC 2007-M38 Read MPEC 2007-M40


    MPEC number:

    Enter an MPEC number in one of the following forms:

    • 1997-B01 (the full form)
    • J97B01 (the packed version of the full form)
    • B01 (the abbreviated form)